DW8947 Weather Reports


time (UTC)temp
C
wind
direction
speed
KPH
gust
KPH
rain 1hr
cm
rain 24hr
cm
rain mn
cm
humidity
%
barometer
mb
20260903105204 13 112 0.0 3.2 0.00 0.36 0.00 92 1006.1
20260903103204 13 125 0.0 3.2 0.00 0.36 0.00 92 1006.0
20260903102204 13 128 0.0 3.2 0.00 0.36 0.00 93 1006.0
20260903101704 13 128 0.0 3.2 0.00 0.36 0.00 92 1005.9
20260903101204 13 128 0.0 3.2 0.00 0.36 0.00 93 1005.9
20260903100704 13 128 0.0 3.2 0.00 0.36 0.00 92 1005.9
20260903100204 13 128 0.0 3.2 0.00 0.36 0.00 92 1005.9
20260903095704 13 100 0.0 3.2 0.00 0.36 0.00 93 1005.9
20260903095204 13 100 0.0 3.2 0.00 0.36 0.00 93 1005.8
20260903093203 13 157 0.0 3.2 0.00 0.36 0.00 93 1005.8
20260903091204 13 157 0.0 1.6 0.00 0.36 0.00 93 1005.7
20260903090704 13 157 0.0 3.2 0.00 0.36 0.00 93 1005.7
20260903085704 13 83 0.0 3.2 0.00 0.36 0.00 93 1005.6
20260903084704 12 138 0.0 3.2 0.00 0.36 0.00 93 1005.6
20260903081704 12 152 0.0 3.2 0.00 0.36 0.00 93 1005.4
20260903080203 12 152 0.0 3.2 0.00 0.36 0.00 93 1005.4
20260903075704 13 152 0.0 3.2 0.00 0.36 0.00 93 1005.4
20260903074704 13 152 0.0 3.2 0.00 0.36 0.00 93 1005.3
20260903074204 13 152 0.0 3.2 0.00 0.36 0.00 93 1005.4
20260903073203 13 142 0.0 3.2 0.00 0.36 0.00 92 1005.4
20260903072704 13 142 0.0 3.2 0.00 0.36 0.00 92 1005.3
20260903072204 13 142 0.0 3.2 0.00 0.36 0.00 92 1005.3
20260903070704 13 181 1.6 3.2 0.00 0.36 0.00 92 1005.2
20260903065704 13 164 0.0 3.2 0.00 0.36 0.36 93 1005.1
20260903063704 13 150 1.6 1.6 0.00 0.36 0.36 93 1004.9
20260903062704 12 222 0.0 3.2 0.00 0.36 0.36 94 1004.9
20260903062203 12 48 1.6 3.2 0.00 0.36 0.36 94 1004.9
20260903061203 12 150 0.0 3.2 0.00 0.36 0.36 94 1004.9
20260903060704 12 355 0.0 3.2 0.00 0.36 0.36 93 1005.0
20260903055704 12 338 0.0 3.2 0.00 0.36 0.36 93 1005.1
20260903055203 12 338 0.0 3.2 0.00 0.36 0.36 93 1005.1
20260903054204 13 338 0.0 3.2 0.00 0.36 0.36 93 1005.1
20260903051204 13 234 0.0 3.2 0.00 0.36 0.36 92 1005.0
20260903050704 13 8 0.0 3.2 0.00 0.36 0.36 92 1004.9
20260903045203 13 81 0.0 1.6 0.00 0.36 0.36 92 1004.7
20260903044204 13 58 1.6 3.2 0.00 0.36 0.36 92 1004.6
20260903042703 13 138 1.6 3.2 0.00 0.36 0.36 92 1004.6
20260903041704 13 143 1.6 3.2 0.00 0.36 0.36 93 1004.5
20260903041203 13 98 1.6 3.2 0.00 0.36 0.36 93 1004.6
20260903040703 13 163 0.0 3.2 0.00 0.36 0.36 93 1004.5
20260903040203 13 158 0.0 3.2 0.00 0.36 0.36 93 1004.5
20260903035704 13 156 1.6 4.8 0.00 0.36 0.36 93 1004.4
20260903032704 13 81 0.0 3.2 0.00 0.36 0.36 94 1004.2
20260903032204 13 169 1.6 3.2 0.00 0.36 0.36 94 1004.1
20260903030703 13 158 1.6 3.2 0.00 0.36 0.36 94 1003.9
20260903024704 13 178 0.0 3.2 0.00 0.36 0.36 93 1003.5
20260903023703 13 99 0.0 3.2 0.00 0.36 0.36 93 1003.4
20260903022704 13 146 0.0 3.2 0.00 0.36 0.36 93 1003.1
20260903021204 14 178 0.0 3.2 0.00 0.36 0.36 92 1003.1
20260903020704 14 100 0.0 3.2 0.00 0.36 0.36 92 1003.0
20260903014704 14 210 0.0 3.2 0.00 0.36 0.36 92 1002.6
20260903012704 15 159 0.0 3.2 0.00 0.36 0.36 93 1002.4
20260903012204 15 44 1.6 3.2 0.00 0.36 0.36 93 1002.2
20260903011204 15 236 0.0 4.8 0.00 0.36 0.36 93 1002.1
20260903003204 14 159 1.6 4.8 0.00 0.36 0.36 94 1001.7
20260903002204 14 154 1.6 3.2 0.00 0.36 0.36 94 1001.6
20260903001704 14 160 1.6 3.2 0.00 0.36 0.36 94 1001.6
20260902234704 14 160 1.6 3.2 0.15 0.36 0.36 94 1001.7
20260902234205 14 154 1.6 3.2 0.18 0.36 0.36 94 1001.8
20260902233705 14 163 1.6 3.2 0.18 0.36 0.36 94 1001.8
20260902233205 14 155 1.6 4.8 0.20 0.36 0.36 94 1001.9
20260902232705 14 157 1.6 3.2 0.20 0.36 0.36 93 1002.1
20260902231205 14 168 0.0 3.2 0.20 0.33 0.33 93 1002.3
20260902230205 14 173 0.0 3.2 0.18 0.28 0.28 92 1002.5
20260902224705 15 195 0.0 3.2 0.13 0.20 0.20 92 1002.4
20260902222205 15 306 0.0 3.2 0.08 0.13 0.13 90 1002.5
20260902221705 15 306 0.0 3.2 0.08 0.13 0.13 89 1002.5
20260902220205 15 306 0.0 1.6 0.05 0.10 0.10 88 1002.6
20260902215705 16 239 0.0 3.2 0.05 0.10 0.10 88 1002.5
20260902215205 16 241 0.0 3.2 0.05 0.10 0.10 88 1002.6
20260902214705 16 241 0.0 3.2 0.03 0.08 0.08 87 1002.6
20260902213705 16 167 0.0 3.2 0.03 0.08 0.08 85 1002.7
20260902212205 17 179 1.6 3.2 0.00 0.05 0.05 83 1002.7
20260902211705 17 153 1.6 4.8 0.00 0.05 0.05 81 1002.7
20260902211205 17 218 0.0 3.2 0.00 0.05 0.05 81 1002.6
20260902210705 17 300 0.0 3.2 0.00 0.05 0.05 82 1002.5
20260902205205 18 163 1.6 3.2 0.00 0.05 0.05 79 1002.4
20260902204705 17 262 1.6 3.2 0.03 0.05 0.05 80 1002.4
20260902204205 17 240 0.0 3.2 0.03 0.05 0.05 81 1002.5
20260902202705 17 4 0.0 3.2 0.05 0.05 0.05 83 1002.5
20260902202205 17 216 0.0 4.8 0.05 0.05 0.05 84 1002.6
20260902195704 16 146 0.0 1.6 0.05 0.05 0.05 87 1002.8
20260902195204 16 117 0.0 3.2 0.05 0.05 0.05 87 1002.8
20260902192205 18 152 1.6 4.8 0.00 0.00 0.00 68 1002.7
20260902191705 18 162 1.6 4.8 0.00 0.00 0.00 68 1002.7
20260902191205 18 163 1.6 3.2 0.00 0.00 0.00 66 1002.7
20260902190705 19 159 0.0 3.2 0.00 0.00 0.00 70 1002.8
20260902185207 18 237 0.0 3.2 0.00 0.00 0.00 69 1003.0
20260902184705 18 237 0.0 1.6 0.00 0.00 0.00 73 1003.0
20260902184205 17 193 0.0 3.2 0.00 0.00 0.00 74 1003.1
20260902183705 17 160 0.0 3.2 0.00 0.00 0.00 75 1003.1
20260902182205 17 160 0.0 3.2 0.00 0.00 0.00 76 1003.4
20260902181705 17 160 0.0 3.2 0.00 0.00 0.00 77 1003.5
20260902181205 17 160 0.0 3.2 0.00 0.00 0.00 76 1003.5
20260902172705 17 160 0.0 3.2 0.00 0.00 0.00 78 1003.9
20260902172205 17 160 0.0 3.2 0.00 0.00 0.00 77 1003.9
20260902170704 16 154 0.0 3.2 0.00 0.00 0.00 79 1004.1
20260902165705 16 138 0.0 1.6 0.00 0.00 0.00 79 1004.2
20260902165204 16 137 0.0 3.2 0.00 0.00 0.00 79 1004.2
20260902164704 16 137 0.0 3.2 0.00 0.00 0.00 80 1004.2
20260902164204 16 151 0.0 1.6 0.00 0.00 0.00 80 1004.2
20260902163705 16 151 0.0 3.2 0.00 0.00 0.00 80 1004.2
20260902162705 16 169 0.0 3.2 0.00 0.00 0.00 80 1004.4
20260902161705 16 206 0.0 3.2 0.00 0.00 0.00 81 1004.5
20260902160205 16 169 0.0 3.2 0.00 0.00 0.00 82 1004.5
20260902155704 16 169 1.6 3.2 0.00 0.00 0.00 83 1004.5
20260902155204 16 144 0.0 3.2 0.00 0.00 0.00 83 1004.5
20260902153705 16 166 0.0 1.6 0.00 0.00 0.00 83 1004.8
20260902153205 16 166 0.0 3.2 0.00 0.00 0.00 84 1004.8
20260902151705 15 183 0.0 3.2 0.00 0.00 0.00 87 1005.0
20260902151205 15 153 0.0 3.2 0.00 0.00 0.00 86 1005.0
20260902150704 15 153 1.6 3.2 0.00 0.00 0.00 87 1005.1
20260902150205 15 148 0.0 3.2 0.00 0.00 0.00 86 1005.1
20260902144204 15 176 0.0 3.2 0.00 0.00 0.00 86 1005.3
20260902143705 15 176 0.0 3.2 0.00 0.00 0.00 86 1005.4
20260902143205 15 170 0.0 3.2 0.00 0.00 0.00 85 1005.4
20260902142705 15 178 0.0 3.2 0.00 0.00 0.00 85 1005.4
20260902141705 15 204 0.0 3.2 0.00 0.00 0.00 85 1005.4
20260902141205 15 204 0.0 3.2 0.00 0.00 0.00 85 1005.4
20260902140204 15 212 0.0 3.2 0.00 0.00 0.00 85 1005.4
20260902135705 15 208 0.0 1.6 0.00 0.00 0.00 85 1005.4
20260902135205 15 208 0.0 3.2 0.00 0.00 0.00 85 1005.4
20260902134705 15 208 0.0 3.2 0.00 0.00 0.00 85 1005.4
20260902133705 15 208 0.0 3.2 0.00 0.00 0.00 85 1005.4
20260902131705 15 125 0.0 3.2 0.00 0.00 0.00 85 1005.5
20260902131205 15 75 0.0 3.2 0.00 0.00 0.00 85 1005.6
20260902130205 15 109 0.0 3.2 0.00 0.00 0.00 86 1005.7
20260902125205 15 181 0.0 3.2 0.00 0.00 0.00 86 1005.7
20260902123205 15 248 0.0 3.2 0.00 0.00 0.00 87 1005.8
20260902122204 15 171 0.0 3.2 0.00 0.00 0.00 88 1005.8
20260902121705 15 171 0.0 1.6 0.00 0.00 0.00 88 1005.8
20260902121204 15 320 0.0 1.6 0.00 0.00 0.00 88 1005.9
20260902115705 15 85 0.0 3.2 0.00 0.00 0.00 90 1006.0